map of ENU home
ENU - Airport
Location
City:  Enugu, Enugu, Nigeria
Name:Akanu Ibiam International Airport
ICAO:DNEN
IATA:ENU

Details
Type:Airport (Aerodrome, Airfield)
Use:Public/Civil, International (customs port of entry)
Latitude:628'27"N (6.474272)
Longitude:733'43"E (7.561961)
Datum:WGS 1984
Elevation:466 ft (142 m)
Variation:1.07W (WMM2015 magnetic declination)
0.11 annual change
Runways:1
Longest:7879 × 148 ft (2402 × 45 m), paved

Time
Time Zone:UTC+1
Local Time:

Weather
METAR:DNEN 180400Z VRB02KT 2000 HZ NSC 20/12 Q1011
TAF:DNEN 172140Z 1800/1906 VRB02KT 2000 HZ NSC
TEMPO 1805/1807 1500
BECMG 1810/1812 33010KT 3000

Related Locations
Nearby:
Farthest:CIS: 12171 mi / 19587 km
Kanton Island (Canton Island, Abariringa Island) [Canton Island Airport], P, KI

Find:

   beyond  
but within

Other Information
Maps:
NOTAMs:
Links:
Sources:

  
  • flag of Nigeria
  

Sectional Chart

Flight Planning
at skyvector.com

Satellite Image

Google Maps Satellite view

 

Copyright © 2004-2019 Karl L. Swartz. All rights reserved.
The Great Circle Mapper name and logo are trademarks of the Great Circle Mapper.
All other trademarks mentioned herein belong to their respective owners.
Please see credits for attibutions and further copyright information.

  Follow gcmap on Facebook Follow gcmap on Twitter Follow gcmap on Google+ GCmap on LinkedIn

hCard Microformat

Geo Microformat